Back to catalog

STARLINK-35939

AliveCommunicationsVLEO
NORAD 66584·PAYLOAD·🇺🇸 United States

Launched Nov 21, 2025 from Cape Canaveral Space Force Station

Loading…

Next Passes (next 24 hours)

TLE

FreshSource: CelesTrak SupGP

Epoch: Sep 14, 2026, 22:55 UTC

1 66584C 25268AD  26257.95534722 -.00021282  00000+0 -77083-3 0  2572
2 66584  43.0031 357.8123 0001462 269.0004 312.4528 15.27588213    13

Track STARLINK-35939 in real time with AllMySat

Download on the App Store